Tiempo cada hora Cave Spring

Hoy, 19 Abril, Lunes

Tiempo Temperatura Precipitaciones Viento Presión Humedad
00:00 +11°C° 0.1 mm 1 mps 726 mmHg 77%
01:00 +11°C° 0 mm 1 mps 726 mmHg 75%
02:00 +10°C° 1.3 mm 1 mps 726 mmHg 82%
03:00 +10°C° 1.3 mm 1 mps 726 mmHg 89%
04:00 +9°C° 1.3 mm 1 mps 726 mmHg 96%
05:00 +9°C° 0.4 mm 1 mps 726 mmHg 95%
06:00 +9°C° 0.4 mm 1 mps 726 mmHg 94%
07:00 +8°C° 0 mm 0 mps 726 mmHg 92%
08:00 +11°C° 0 mm 1 mps 726 mmHg 82%
09:00 +13°C° 0 mm 1 mps 726 mmHg 71%
10:00 +14°C° 0 mm 2 mps 726 mmHg 61%
11:00 +15°C° 0 mm 2 mps 726 mmHg 54%
12:00 +16°C° 0 mm 2 mps 726 mmHg 47%
13:00 +17°C° 0 mm 3 mps 726 mmHg 40%
14:00 +17°C° 0 mm 3 mps 726 mmHg 40%
15:00 +18°C° 0 mm 3 mps 726 mmHg 41%
16:00 +18°C° 0 mm 4 mps 726 mmHg 41%
17:00 +16°C° 0 mm 3 mps 726 mmHg 51%
18:00 +14°C° 0 mm 2 mps 727 mmHg 60%
19:00 +12°C° 0 mm 2 mps 727 mmHg 70%
20:00 +10°C° 0 mm 2 mps 727 mmHg 74%
21:00 +9°C° 0 mm 2 mps 728 mmHg 78%
22:00 +9°C° 0 mm 1 mps 728 mmHg 82%
23:00 +9°C° 0 mm 1 mps 728 mmHg 84%

Mañana, 20 Abril, Martes

Tiempo Temperatura Precipitaciones Viento Presión Humedad
00:00 +8°C° 0 mm 1 mps 728 mmHg 85%
01:00 +8°C° 0 mm 1 mps 728 mmHg 86%
02:00 +7°C° 0 mm 1 mps 729 mmHg 87%
03:00 +7°C° 0 mm 1 mps 729 mmHg 88%
04:00 +7°C° 0 mm 1 mps 729 mmHg 88%
05:00 +8°C° 0 mm 1 mps 730 mmHg 85%
06:00 +9°C° 0 mm 1 mps 730 mmHg 81%
07:00 +10°C° 0 mm 1 mps 730 mmHg 78%
08:00 +12°C° 0 mm 1 mps 730 mmHg 67%
09:00 +15°C° 0 mm 2 mps 730 mmHg 56%
10:00 +18°C° 0 mm 2 mps 730 mmHg 46%
11:00 +19°C° 0 mm 2 mps 730 mmHg 43%
12:00 +20°C° 0 mm 3 mps 729 mmHg 40%
13:00 +21°C° 0 mm 4 mps 729 mmHg 36%
14:00 +21°C° 0 mm 4 mps 728 mmHg 38%
15:00 +21°C° 0 mm 4 mps 727 mmHg 39%
16:00 +21°C° 0 mm 5 mps 727 mmHg 40%
17:00 +19°C° 0 mm 3 mps 727 mmHg 50%
18:00 +17°C° 0 mm 2 mps 727 mmHg 60%
19:00 +14°C° 0 mm 1 mps 727 mmHg 70%
20:00 +14°C° 0 mm 1 mps 727 mmHg 74%
21:00 +13°C° 0 mm 1 mps 727 mmHg 78%
22:00 +12°C° 0 mm 1 mps 727 mmHg 82%
23:00 +12°C° 0.1 mm 1 mps 726 mmHg 85%

Pasado mañana, 21 Abril, Miércoles

Tiempo Temperatura Precipitaciones Viento Presión Humedad
00:00 +11°C° 0.1 mm 1 mps 726 mmHg 88%
01:00 +11°C° 0.1 mm 1 mps 726 mmHg 91%
02:00 +10°C° 0 mm 1 mps 725 mmHg 92%
03:00 +9°C° 0 mm 2 mps 725 mmHg 94%
04:00 +9°C° 0 mm 2 mps 724 mmHg 95%
05:00 +10°C° 0 mm 2 mps 724 mmHg 93%
06:00 +10°C° 0 mm 2 mps 724 mmHg 91%
07:00 +12°C° 0 mm 2 mps 723 mmHg 89%
08:00 +10°C° 0 mm 3 mps 724 mmHg 84%
09:00 +8°C° 0 mm 5 mps 725 mmHg 79%
10:00 +7°C° 0 mm 6 mps 726 mmHg 74%
11:00 +8°C° 0 mm 6 mps 726 mmHg 66%
12:00 +8°C° 0 mm 7 mps 726 mmHg 58%
13:00 +8°C° 0 mm 7 mps 727 mmHg 50%
14:00 +8°C° 0 mm 7 mps 727 mmHg 48%
15:00 +8°C° 0 mm 7 mps 727 mmHg 46%
16:00 +8°C° 0 mm 7 mps 727 mmHg 45%
17:00 +5°C° 0 mm 6 mps 728 mmHg 51%
18:00 +4°C° 0 mm 6 mps 728 mmHg 58%
19:00 +2°C° 0 mm 5 mps 729 mmHg 65%
20:00 +1°C° 0 mm 4 mps 730 mmHg 65%
21:00 +1°C° 0 mm 3 mps 730 mmHg 65%
22:00 +1°C° 0 mm 3 mps 731 mmHg 66%
23:00 +1°C° 0 mm 2 mps 731 mmHg 68%

22 Abril, Jueves

Tiempo Temperatura Precipitaciones Viento Presión Humedad
00:00 -1°C° 0 mm 2 mps 731 mmHg 71%
01:00 +1°C° 0 mm 1 mps 731 mmHg 73%
02:00 0°C° 0 mm 1 mps 731 mmHg 77%
03:00 -2°C° 0 mm 2 mps 731 mmHg 80%
04:00 -2°C° 0 mm 2 mps 731 mmHg 84%
05:00 -1°C° 0 mm 2 mps 731 mmHg 79%
06:00 +1°C° 0 mm 2 mps 732 mmHg 75%
07:00 +2°C° 0 mm 2 mps 733 mmHg 70%
08:00 +3°C° 0 mm 3 mps 733 mmHg 59%
09:00 +5°C° 0 mm 3 mps 733 mmHg 48%
10:00 +8°C° 0 mm 4 mps 732 mmHg 37%
11:00 +10°C° 0 mm 4 mps 732 mmHg 35%
12:00 +11°C° 0 mm 4 mps 732 mmHg 32%
13:00 +12°C° 0 mm 5 mps 731 mmHg 30%
14:00 +12°C° 0 mm 5 mps 731 mmHg 30%
15:00 +12°C° 0 mm 5 mps 731 mmHg 31%
16:00 +12°C° 0 mm 5 mps 731 mmHg 31%
17:00 +10°C° 0 mm 4 mps 731 mmHg 40%
18:00 +9°C° 0 mm 3 mps 732 mmHg 48%
19:00 +7°C° 0 mm 3 mps 732 mmHg 57%
20:00 +5°C° 0 mm 2 mps 732 mmHg 66%
21:00 +4°C° 0 mm 2 mps 733 mmHg 74%
22:00 +3°C° 0 mm 2 mps 733 mmHg 83%
23:00 +3°C° 0 mm 1 mps 733 mmHg 86%

23 Abril, Viernes

Tiempo Temperatura Precipitaciones Viento Presión Humedad
00:00 +3°C° 0 mm 1 mps 733 mmHg 89%
01:00 +2°C° 0 mm 1 mps 734 mmHg 92%
02:00 +2°C° 0 mm 1 mps 734 mmHg 92%
03:00 +1°C° 0 mm 1 mps 734 mmHg 93%
04:00 +1°C° 0 mm 1 mps 734 mmHg 94%
05:00 +2°C° 0 mm 1 mps 734 mmHg 88%
06:00 +3°C° 0 mm 1 mps 735 mmHg 83%
07:00 +4°C° 0 mm 1 mps 735 mmHg 77%
08:00 +7°C° 0 mm 1 mps 735 mmHg 64%
09:00 +8°C° 0 mm 2 mps 735 mmHg 51%
10:00 +12°C° 0 mm 2 mps 735 mmHg 37%
11:00 +14°C° 0 mm 2 mps 734 mmHg 34%
12:00 +16°C° 0 mm 1 mps 734 mmHg 31%
13:00 +18°C° 0 mm 1 mps 733 mmHg 27%
14:00 +18°C° 0 mm 1 mps 733 mmHg 27%
15:00 +19°C° 0 mm 1 mps 732 mmHg 27%
16:00 +19°C° 0 mm 1 mps 731 mmHg 27%
17:00 +16°C° 0 mm 1 mps 731 mmHg 38%
18:00 +13°C° 0 mm 1 mps 732 mmHg 48%
19:00 +11°C° 0 mm 1 mps 732 mmHg 58%
20:00 +10°C° 0 mm 1 mps 732 mmHg 62%
21:00 +8°C° 0 mm 1 mps 732 mmHg 66%
22:00 +7°C° 0 mm 1 mps 732 mmHg 71%
23:00 +7°C° 0 mm 1 mps 732 mmHg 73%

24 Abril, Sábado

Tiempo Temperatura Precipitaciones Viento Presión Humedad
00:00 +6°C° 0 mm 1 mps 732 mmHg 75%
01:00 +6°C° 0 mm 1 mps 732 mmHg 77%
02:00 +6°C° 0 mm 1 mps 732 mmHg 78%
03:00 +5°C° 0 mm 1 mps 732 mmHg 79%
04:00 +5°C° 0 mm 1 mps 732 mmHg 79%
05:00 +6°C° 0 mm 1 mps 732 mmHg 76%
06:00 +6°C° 0 mm 0 mps 732 mmHg 72%
07:00 +7°C° 0 mm 0 mps 732 mmHg 68%
08:00 +11°C° 0 mm 1 mps 732 mmHg 61%
09:00 +13°C° 0 mm 1 mps 732 mmHg 54%
10:00 +16°C° 0 mm 2 mps 731 mmHg 47%
11:00 +17°C° 0 mm 2 mps 731 mmHg 46%
12:00 +18°C° 0 mm 3 mps 730 mmHg 44%
13:00 +19°C° 0 mm 3 mps 730 mmHg 42%
14:00 +17°C° 0.1 mm 3 mps 730 mmHg 53%
15:00 +16°C° 0.1 mm 3 mps 729 mmHg 64%
16:00 +13°C° 0.1 mm 3 mps 729 mmHg 75%
17:00 +13°C° 1.6 mm 2 mps 729 mmHg 83%
18:00 +12°C° 1.6 mm 1 mps 729 mmHg 91%
19:00 +11°C° 1.6 mm 1 mps 728 mmHg 99%
20:00 +11°C° 2.8 mm 1 mps 728 mmHg 99%
21:00 +11°C° 2.8 mm 1 mps 727 mmHg 99%
22:00 +11°C° 2.8 mm 1 mps 727 mmHg 99%
23:00 +11°C° 4.9 mm 1 mps 725 mmHg 99%
Mostrar más

Necesitamos Su Consentimiento

Meteoprog y nuestros Proveedores de Servicios pueden almacenar y acceder a sus datos personales como cookies, identificadores de dispositivo u otras tecnologías similares de su dispositivo y procesar dichos datos para personalizar contenido y anuncios, además de ofrecer funciones de redes sociales y analizar el tráfico.

  • Almacenar y/o acceder a información en su dispositivo

    Se puede almacenar o acceder a cookies, identificadores de dispositivo u otra información de su dispositivo para los fines anteriormente indicados.

  • Anuncios y contenido personalizados, medición de anuncios y contenido, percepciones del público, y desarrollo de productos

    Los anuncios y el contenido pueden personalizarse en base a su perfil. Se pueden añadir más datos para personalizar mejor los anuncios y contenidos. Se puede medir el rendimiento de los anuncios y contenidos. Se puede obtener la percepción sobre el público que ha visto los anuncios y contenidos. Dichos datos pueden usarse para desarrollar o mejorar la experiencia del usuario, sistemas y software.

Al hacer clic en ‘Estoy De Acuerdo’ usted permitirá el uso de las cookies, identificadores de dispositivo, balizas web u otras tecnologías similares indicadas. Su configuración puede cambiarse desde el navegador de su dispositivo.

Para ciertos fines, los intereses legítimos pueden ser considerados por encima del consentimiento. Puede leer más sobre ello en nuestra Política de Privacidad y Cookies.